Time[GMT],current_u[cm/s](10m),current_v[cm/s](10m),current_u[cm/s](14m),current_v[cm/s](14m),current_u[cm/s](18m),current_v[cm/s](18m),current_u[cm/s](22m),current_v[cm/s](22m),current_u[cm/s](26m),current_v[cm/s](26m),current_u[cm/s](30m),current_v[cm/s](30m),current_u[cm/s](34m),current_v[cm/s](34m),current_u[cm/s](38m),current_v[cm/s](38m),current_u[cm/s](42m),current_v[cm/s](42m),current_u[cm/s](46m),current_v[cm/s](46m),current_u[cm/s](50m),current_v[cm/s](50m),current_u[cm/s](54m),current_v[cm/s](54m),current_u[cm/s](58m),current_v[cm/s](58m),current_u[cm/s](62m),current_v[cm/s](62m),current_u[cm/s](66m),current_v[cm/s](66m),current_u[cm/s](70m),current_v[cm/s](70m),current_u[cm/s](74m),current_v[cm/s](74m),current_u[cm/s](78m),current_v[cm/s](78m),current_u[cm/s](82m),current_v[cm/s](82m),current_u[cm/s](86m),current_v[cm/s](86m),current_u[cm/s](90m),current_v[cm/s](90m)
2006-12-06 04:00,-6.38,5.21,-5.57,4.63,-2.15,2.46,-7.10,6.45,-6.77,7.08,-5.19,7.06,-4.48,6.13,-5.03,4.90,-4.13,3.09,-2.62,2.63,-1.58,2.33,-1.84,1.83,-0.96,1.69,-0.64,1.68,-0.39,-0.44,-1.26,-1.98,-0.59,-4.39,-0.39,-5.37,0.75,-5.32,0.25,-5.06,-1.73,-4.44
2006-12-06 05:00,-11.20,-10.29,-11.20,-10.29,-7.66,-10.53,-12.23,-9.05,-11.83,-10.28,-10.04,-10.97,-8.47,-11.62,-8.53,-11.43,-7.74,-11.92,-6.18,-13.52,-5.03,-14.83,-3.82,-16.65,-3.12,-19.16,-2.54,-20.33,-0.37,-18.91,1.59,-16.50,0.87,-15.89,-2.53,-15.08,-4.44,-15.38,-5.54,-14.89,-5.03,-12.21
2006-12-06 06:00,-10.69,-14.54,-8.26,-15.23,1.85,-21.24,-11.01,-12.54,-10.50,-12.48,-10.02,-14.01,-9.62,-14.93,-9.76,-16.13,-10.25,-17.55,-9.34,-18.10,-8.94,-18.70,-9.42,-19.49,-8.61,-20.70,-8.22,-22.25,-7.66,-25.01,-6.65,-25.53,-5.09,-24.51,-3.51,-22.22,-4.06,-20.82,-6.17,-19.81,-4.74,-16.73
2006-12-06 07:00,-10.66,-17.26,-9.39,-17.27,-1.36,-19.43,-9.01,-16.84,-8.61,-18.07,-7.84,-19.19,-7.53,-19.83,-7.28,-20.59,-6.86,-21.61,-6.83,-22.02,-6.97,-23.22,-6.69,-23.76,-7.47,-24.95,-8.71,-25.66,-11.33,-25.66,-13.81,-26.14,-14.68,-25.36,-15.55,-24.28,-13.64,-22.72,-9.79,-20.97,-6.33,-17.98
2006-12-06 08:00,-7.50,-25.17,-5.44,-24.41,0.86,-24.08,-6.64,-24.27,-6.23,-24.87,-5.76,-25.04,-5.80,-25.57,-5.73,-25.13,-5.61,-25.83,-4.83,-26.63,-4.54,-28.85,-3.89,-29.58,-4.14,-29.14,-3.40,-28.48,-4.80,-28.72,-6.66,-28.79,-8.82,-29.27,-11.01,-29.65,-11.80,-29.80,-11.16,-29.49,-9.14,-27.27
2006-12-06 09:00,-18.46,-8.93,-15.69,-10.36,-8.13,-10.05,-15.59,-7.39,-15.39,-11.31,-15.78,-12.38,-15.31,-12.86,-14.91,-13.79,-14.79,-14.17,-14.00,-14.34,-14.18,-13.13,-14.45,-12.28,-14.84,-10.40,-16.80,-10.19,-17.87,-10.11,-18.69,-9.85,-19.57,-9.08,-19.11,-7.88,-18.13,-7.99,-17.86,-9.16,-14.10,-9.43
2006-12-06 10:00,-10.56,2.51,-9.50,1.80,-3.39,-2.87,-8.52,-1.25,-8.33,-3.50,-8.32,-4.86,-7.35,-5.91,-6.59,-5.99,-6.74,-4.88,-6.93,-2.95,-7.33,-2.02,-7.46,0.03,-6.44,1.09,-6.29,0.62,-5.50,-2.17,-3.63,-4.73,-0.80,-5.40,1.17,-4.66,4.70,-5.53,4.74,-7.62,4.34,-9.32
2006-12-06 11:00,1.22,6.06,1.93,5.13,2.18,2.38,0.79,5.08,0.13,5.50,0.47,2.46,1.45,-0.27,2.08,-2.90,1.93,-2.11,2.81,-0.26,3.64,2.74,4.13,3.84,4.27,4.72,4.22,5.86,5.43,6.67,6.27,5.68,6.90,2.73,6.90,0.42,5.56,-0.32,5.72,-3.11,5.09,-4.78
2006-12-06 12:00,-5.19,19.55,-5.18,19.86,-3.81,13.58,-3.36,19.08,-2.57,19.23,-2.04,18.56,-1.07,17.82,-0.86,16.84,-0.83,16.42,-0.72,15.41,0.95,15.10,0.76,14.73,1.17,14.44,1.75,13.26,1.50,13.07,1.85,13.29,1.07,14.41,-0.20,11.80,2.54,5.53,3.85,-3.18,5.44,-4.56
2006-12-06 14:00,-1.85,20.61,-1.81,19.16,-1.90,14.83,-1.27,19.12,0.37,18.91,1.85,18.22,4.20,16.77,5.38,15.36,6.26,14.59,6.21,13.11,6.43,12.76,5.96,11.25,4.88,10.37,4.60,8.61,4.73,8.54,4.20,7.22,3.51,5.11,2.96,1.57,2.01,-1.35,0.45,-2.06,-1.74,-2.76
2006-12-06 15:00,-2.39,13.72,-2.27,15.34,-3.99,16.46,0.34,11.76,0.99,10.39,1.73,9.37,2.33,9.14,2.95,8.18,4.07,6.97,4.81,5.00,5.45,3.00,4.70,1.71,4.22,1.24,3.13,2.05,2.57,3.13,0.87,1.22,1.47,-1.32,2.52,-3.29,2.14,-3.41,-0.72,-4.32,-2.65,-4.52
2006-12-06 16:00,-4.43,4.99,-3.57,5.26,1.95,11.33,-4.48,3.50,-5.06,2.69,-5.61,1.78,-4.43,-0.58,-3.55,-3.02,-2.35,-5.79,-0.98,-7.13,1.10,-10.67,2.63,-12.18,2.96,-13.54,2.70,-13.73,2.23,-13.56,2.12,-11.92,1.82,-10.97,2.10,-11.51,1.49,-12.23,-0.23,-13.09,-1.25,-13.84
2006-12-06 17:00,-9.76,-3.95,-8.01,-2.87,-1.09,-1.19,-10.19,-7.87,-11.05,-8.46,-10.30,-8.85,-9.22,-8.93,-9.36,-10.13,-9.27,-12.72,-7.96,-16.50,-5.35,-20.08,-3.80,-22.63,-3.57,-24.34,-3.71,-25.22,-4.16,-25.78,-5.08,-25.87,-4.04,-26.80,-5.45,-27.67,-8.50,-28.95,-11.26,-29.84,-12.99,-28.71
2006-12-06 18:00,-3.68,-13.14,-2.13,-11.07,2.61,-3.26,-2.59,-17.20,-3.82,-18.96,-4.02,-19.97,-4.53,-22.97,-4.35,-25.85,-3.59,-28.23,-2.57,-30.11,-2.30,-31.60,-2.16,-32.70,-2.86,-32.82,-3.59,-33.16,-5.36,-33.20,-7.16,-33.15,-7.94,-32.03,-9.93,-32.04,-12.46,-31.69,-13.42,-30.31,-11.74,-25.05
2006-12-06 19:00,-3.75,-21.14,-2.64,-20.68,-1.78,-7.92,-3.13,-22.10,-4.35,-20.91,-5.83,-20.23,-6.13,-21.58,-6.21,-22.98,-6.10,-23.99,-6.89,-24.45,-8.50,-24.34,-9.12,-25.37,-10.21,-26.88,-10.54,-27.82,-12.65,-29.44,-13.27,-30.79,-15.93,-31.33,-17.50,-33.30,-18.32,-35.34,-18.60,-34.49,-14.19,-28.57
2006-12-06 22:00,6.13,-2.77,5.27,-3.36,0.53,1.95,5.34,-5.22,4.81,-6.86,5.58,-6.30,5.72,-7.73,5.37,-8.26,8.76,-7.39,3.70,-7.32,3.32,-7.13,2.92,-6.52,3.71,-2.07,2.57,-2.12,0.34,-7.97,-0.49,-8.66,-2.66,-10.09,-3.57,-11.85,0.90,-13.67,-0.20,-12.87,-14.13,-14.27
2006-12-06 23:00,19.66,1.55,17.92,-0.58,6.69,-3.53,21.18,-0.59,23.79,0.77,23.45,0.87,22.24,0.38,21.80,-1.54,20.70,-3.68,19.57,-5.41,19.47,-5.44,17.53,-6.90,15.56,-7.00,13.69,-7.39,12.72,-6.96,9.53,-11.44,11.31,-8.15,10.86,-9.03,12.41,-1.08,13.02,-0.99,17.06,13.63
2006-12-07 02:00,9.65,22.71,9.81,19.92,5.14,11.19,11.78,20.66,14.13,21.83,19.12,23.63,19.17,22.81,14.11,20.25,16.88,21.45,13.74,18.13,16.44,21.83,16.15,21.74,9.09,18.23,12.75,20.23,5.86,17.82,3.94,18.58,2.32,18.38,1.97,18.16,2.51,18.12,-0.72,13.10,1.52,-0.15
2006-12-07 03:00,13.22,22.06,12.85,20.27,11.69,11.08,15.64,23.36,15.71,24.12,15.94,24.40,16.10,24.56,16.36,25.06,16.09,26.23,17.55,26.59,17.46,27.51,17.29,26.72,17.55,26.91,17.23,26.60,13.67,25.25,13.94,24.39,11.49,22.88,9.56,20.69,1.96,17.53,4.42,14.11,-5.84,15.98
2006-12-07 05:00,7.06,5.19,4.09,3.30,2.66,-2.09,4.44,3.52,5.23,3.66,6.78,3.11,7.28,2.85,8.04,2.77,9.02,2.67,7.29,3.48,7.45,1.64,8.13,0.18,7.74,-0.26,6.67,-0.18,9.83,4.71,4.28,3.36,6.95,11.77,1.11,10.01,2.34,7.47,-2.21,4.96,2.13,5.51
2006-12-07 06:00,9.86,-12.49,9.03,-13.81,4.21,-14.82,10.54,-16.26,10.14,-17.97,10.84,-18.17,10.78,-17.97,10.54,-18.89,9.91,-18.88,10.21,-19.83,9.21,-19.31,8.72,-17.79,7.00,-18.97,4.47,-18.62,2.33,-18.15,2.06,-16.66,5.63,-12.37,4.94,-11.54,4.45,-10.34,1.16,-12.85,2.57,-11.35
2006-12-07 07:00,-1.28,-18.67,-3.28,-19.31,-2.99,-15.96,-2.02,-19.65,-1.66,-20.79,-2.56,-22.23,-3.58,-22.98,-4.51,-23.69,-4.23,-24.23,-4.31,-25.31,-3.90,-25.60,-3.17,-25.26,-4.27,-24.77,-5.09,-24.19,-6.42,-24.62,-8.73,-24.62,-11.82,-23.82,-13.89,-22.59,-15.38,-20.23,-15.64,-16.43,-17.25,-16.00
2006-12-07 08:00,3.91,-25.41,3.80,-24.08,-0.30,-18.47,3.41,-24.84,2.21,-25.33,2.02,-24.76,1.71,-24.44,1.46,-24.31,1.40,-23.80,1.93,-24.79,1.43,-24.21,1.55,-24.91,0.21,-25.33,-1.07,-24.59,-3.58,-22.98,-6.34,-21.23,-8.17,-18.14,-10.04,-15.91,-10.33,-14.00,-10.33,-11.70,-9.53,-5.98
2006-12-07 09:00,-5.28,-22.26,-5.74,-23.77,-6.10,-19.37,-5.92,-22.88,-5.96,-23.10,-5.61,-23.20,-4.78,-22.52,-5.23,-23.08,-5.19,-22.23,-5.07,-22.93,-4.48,-23.79,-3.85,-23.80,-3.80,-22.94,-3.77,-20.10,-3.72,-18.93,-5.20,-17.93,-5.53,-16.88,-6.52,-15.10,-7.83,-13.62,-9.59,-10.72,-7.67,-5.91
2006-12-07 10:00,2.30,-5.56,4.73,-8.25,1.34,-9.13,4.11,-9.92,3.77,-11.50,4.46,-12.64,4.86,-12.93,4.85,-13.57,4.72,-14.13,4.49,-14.73,5.63,-14.37,6.56,-13.97,5.52,-13.35,5.29,-11.96,4.92,-11.13,3.77,-9.19,3.24,-8.52,2.22,-7.27,3.06,-5.32,4.49,-2.56,1.62,3.14
2006-12-07 11:00,2.01,-3.35,3.02,-3.55,2.04,-1.45,2.71,-2.91,3.78,-3.31,3.34,-3.24,3.85,-3.18,5.02,-3.23,5.17,-3.70,6.14,-4.44,5.91,-5.36,6.05,-6.78,5.80,-6.65,5.26,-6.30,4.89,-6.10,3.20,-4.44,2.43,-2.69,2.03,-1.77,1.54,-0.87,0.80,0.78,9.72,0.48
2006-12-07 12:00,5.01,13.57,3.48,10.14,-0.64,6.62,4.36,9.37,5.03,7.91,6.32,7.16,6.09,6.25,6.43,5.83,6.58,5.04,6.68,5.70,6.55,4.82,5.28,4.83,5.15,4.90,4.37,5.70,3.37,6.53,2.62,7.24,2.48,8.67,2.85,9.83,3.38,12.10,4.66,13.35,6.06,13.58
2006-12-07 13:00,13.90,13.99,12.81,12.49,8.99,7.70,14.55,12.62,14.20,12.40,13.84,11.56,13.39,10.68,13.35,10.45,13.08,11.00,12.52,11.76,11.55,12.50,11.69,13.70,11.70,14.65,11.80,15.00,12.34,17.58,12.52,19.32,13.14,20.99,14.42,22.24,15.61,23.46,15.54,25.32,18.34,16.87
2006-12-07 14:00,9.80,19.61,8.12,19.28,5.96,16.18,8.78,19.18,9.26,19.33,8.27,18.17,7.50,17.93,6.11,17.70,4.46,17.27,3.64,17.22,2.44,17.36,2.14,16.64,1.91,16.04,1.79,16.11,2.49,16.86,2.74,16.73,2.41,17.77,4.36,19.24,7.16,20.65,8.37,18.52,9.39,16.96
2006-12-07 15:00,17.49,17.23,16.46,15.85,9.58,12.08,16.35,16.87,16.63,16.96,15.64,16.43,14.38,16.77,14.01,16.96,12.25,15.88,10.49,16.15,11.42,15.19,10.35,15.27,9.11,14.87,8.83,15.10,7.54,15.53,8.27,16.18,11.90,17.65,16.64,17.91,20.81,17.35,24.12,16.52,23.60,15.51
2006-12-07 16:00,15.10,10.91,14.60,9.17,14.27,0.35,12.76,10.68,10.86,10.71,9.53,10.91,8.46,11.31,8.43,11.40,7.38,10.75,6.34,11.05,5.17,11.41,4.14,11.71,3.26,12.80,3.28,13.75,3.87,13.52,6.76,12.03,11.01,9.92,13.05,9.10,13.98,7.82,15.29,6.35,15.77,6.50
2006-12-07 17:00,11.78,-3.69,10.03,-4.78,8.32,-7.00,8.11,-3.71,6.53,-4.01,6.12,-3.40,5.27,-3.04,4.13,-3.41,3.67,-4.60,2.93,-3.58,1.35,-0.93,1.43,3.08,0.98,4.83,0.29,5.02,-0.48,4.15,0.07,2.75,1.59,0.93,1.92,-0.44,3.02,-1.24,3.51,-2.13,2.22,-2.34
2006-12-07 18:00,2.22,-17.14,3.49,-16.21,10.03,-11.70,-2.51,-17.80,-4.19,-18.13,-6.09,-18.42,-7.35,-18.09,-8.08,-18.11,-9.65,-17.78,-10.19,-17.42,-10.34,-16.95,-11.91,-15.98,-11.77,-15.41,-11.28,-13.99,-10.67,-12.96,-5.84,-13.62,-2.45,-13.38,-0.68,-13.65,-0.89,-14.98,-1.08,-15.36,-1.21,-15.61
2006-12-07 19:00,-5.05,-26.60,-4.79,-25.46,0.51,-17.05,-9.69,-25.56,-10.35,-25.45,-11.36,-24.93,-12.67,-24.09,-13.28,-24.18,-14.54,-23.85,-15.35,-23.27,-16.19,-22.28,-16.97,-21.16,-17.88,-20.30,-18.82,-19.65,-17.90,-19.57,-16.95,-19.58,-14.04,-19.81,-10.44,-19.92,-7.84,-19.82,-9.43,-20.12,-9.05,-20.31
2006-12-07 21:00,-1.88,-30.62,-1.01,-29.71,3.65,-21.30,-0.94,-28.96,-2.49,-28.72,-2.70,-28.05,-4.11,-26.92,-5.04,-25.33,-6.32,-23.95,-7.89,-23.62,-8.39,-23.04,-9.46,-22.65,-11.14,-22.66,-10.97,-21.55,-10.68,-21.15,-10.14,-21.19,-11.25,-21.33,-10.74,-21.59,-9.77,-22.33,-8.15,-21.81,-4.53,-18.03
2006-12-07 23:00,2.08,-15.08,4.02,-14.25,6.20,-11.88,4.40,-14.13,4.34,-13.94,2.96,-13.54,2.24,-12.62,2.40,-12.46,2.98,-11.96,3.07,-11.93,3.84,-11.37,3.02,-11.11,3.06,-10.25,2.08,-10.15,2.38,-9.11,2.52,-8.22,3.48,-6.97,6.36,-6.79,8.60,-7.23,10.53,-7.66,7.92,-8.70
2006-12-08 00:00,2.69,-4.81,2.22,-2.34,3.88,1.97,1.39,-0.40,2.37,-0.50,2.12,0.26,2.39,1.08,1.88,1.02,2.29,1.36,1.80,1.94,1.64,1.78,3.36,3.28,3.39,3.18,3.62,3.46,4.77,4.46,4.67,3.80,5.98,4.95,7.59,4.84,9.87,5.25,11.48,4.82,9.88,5.57
2006-12-08 03:00,3.57,14.15,3.12,14.22,3.86,9.94,5.43,16.53,6.49,17.82,6.43,18.01,5.75,19.15,4.90,19.51,5.16,20.02,4.48,21.16,3.59,21.30,3.14,23.05,3.70,24.27,4.21,24.65,4.05,24.81,4.45,24.20,6.24,25.50,9.00,28.38,11.11,30.63,13.36,30.82,13.12,29.59
2006-12-08 04:00,-3.56,-1.66,-2.18,0.25,-0.58,-0.50,4.03,3.49,6.17,5.01,6.55,4.82,6.37,5.71,5.91,7.13,4.90,7.34,4.69,8.00,4.64,9.14,4.34,10.41,3.52,10.99,3.72,11.69,4.14,11.71,4.32,11.46,6.57,11.65,9.48,11.74,13.52,10.93,15.98,10.77,16.98,9.62
2006-12-08 05:00,-1.00,-1.47,-1.64,-1.78,-3.99,-5.26,-0.15,0.79,1.20,0.17,1.65,0.74,2.60,0.73,2.29,1.36,2.98,2.84,2.60,3.03,2.42,3.92,1.92,3.87,2.01,3.90,1.76,4.34,2.58,4.08,2.40,4.65,2.93,3.98,4.03,3.81,4.96,2.21,6.33,0.24,5.65,-0.61
2006-12-08 06:00,-15.66,-10.46,-15.03,-10.78,-14.04,-11.93,-13.99,-8.14,-11.42,-7.32,-10.27,-6.95,-8.95,-7.16,-8.44,-7.10,-6.95,-6.84,-6.79,-7.00,-5.88,-7.23,-5.31,-7.05,-4.76,-5.82,-4.02,-5.17,-4.41,-5.92,-4.99,-6.74,-4.43,-7.82,-3.95,-9.34,-3.65,-10.93,-3.73,-12.00,-5.53,-11.95
2006-12-08 07:00,-18.26,-21.05,-17.11,-19.42,-13.91,-19.56,-14.58,-19.45,-14.45,-19.52,-14.59,-20.72,-14.50,-20.69,-15.70,-21.18,-15.14,-21.63,-14.44,-21.51,-13.75,-21.71,-12.20,-21.95,-11.20,-22.78,-10.89,-22.79,-10.83,-23.61,-10.26,-26.05,-8.48,-27.37,-8.79,-26.74,-9.02,-27.34,-8.18,-28.64,-8.46,-26.11
2006-12-08 08:00,-13.36,-28.51,-13.95,-27.02,-13.65,-23.67,-12.84,-26.88,-11.57,-26.58,-11.21,-26.04,-10.92,-25.63,-10.80,-25.70,-10.29,-25.96,-10.74,-26.21,-10.55,-26.46,-10.27,-26.69,-10.43,-26.53,-10.25,-27.10,-10.19,-27.60,-9.87,-27.61,-8.80,-28.00,-7.15,-27.26,-3.68,-33.19,-1.11,-30.06,2.02,-22.13
2006-12-08 09:00,-15.88,-37.40,-15.56,-37.09,-13.59,-36.35,-15.41,-37.88,-14.89,-36.56,-13.91,-36.35,-14.50,-35.80,-14.05,-35.24,-13.98,-34.80,-13.66,-34.49,-13.31,-33.95,-12.51,-33.49,-12.31,-32.48,-11.48,-32.11,-11.00,-31.96,-11.61,-32.36,-12.46,-31.69,-12.88,-32.66,-12.91,-32.25,-11.53,-31.29,-12.75,-19.92
2006-12-08 10:00,-21.78,-23.53,-21.00,-22.34,-17.67,-21.28,-20.85,-22.50,-21.24,-23.57,-20.96,-23.80,-20.64,-24.12,-20.44,-25.42,-20.27,-26.94,-19.88,-26.50,-18.88,-27.34,-17.34,-27.58,-16.65,-28.41,-15.70,-28.42,-14.76,-29.06,-14.99,-29.35,-14.84,-30.14,-14.05,-29.99,-13.42,-30.63,-13.35,-27.25,-9.51,-21.51
2006-12-08 11:00,-19.12,-16.07,-17.78,-15.02,-11.10,-16.87,-19.24,-15.38,-19.64,-14.45,-19.22,-13.80,-19.15,-13.67,-19.60,-13.92,-19.28,-13.60,-17.76,-14.07,-17.17,-14.93,-15.77,-16.69,-16.31,-16.65,-15.79,-17.63,-15.23,-16.41,-16.09,-16.37,-16.96,-15.60,-17.35,-16.35,-16.81,-15.76,-14.35,-14.24,-9.77,-9.84
2006-12-08 12:00,-16.48,-12.19,-14.76,-14.26,-10.27,-24.06,-15.64,-10.87,-16.30,-8.77,-15.49,-9.35,-14.43,-10.69,-12.14,-11.96,-10.02,-11.70,-8.80,-10.26,-7.82,-10.37,-7.12,-10.25,-5.58,-11.12,-4.26,-11.65,-4.15,-12.66,-3.99,-12.50,-4.49,-12.56,-4.76,-13.38,-3.19,-14.66,-2.19,-12.88,2.48,-8.76
2006-12-08 13:00,-0.18,-6.35,0.82,-7.19,2.44,-6.67,2.20,-5.91,4.03,-4.07,5.96,-3.56,8.02,-3.42,8.30,-1.66,6.75,-1.10,6.77,-0.15,6.43,0.90,5.87,1.35,6.21,1.25,7.76,0.69,10.53,-0.42,11.28,-1.13,11.13,-2.64,10.12,-2.75,9.17,-2.74,8.86,-2.42,9.99,-5.00
2006-12-08 14:00,-9.12,-3.01,-5.86,-5.33,-1.22,-13.93,-7.89,-0.94,-6.88,1.16,-7.66,2.28,-7.93,3.14,-6.74,2.05,-6.14,2.13,-5.52,1.49,-4.52,0.34,-1.62,-0.20,1.36,-0.30,4.18,0.39,6.08,0.68,8.26,0.43,10.84,1.57,13.76,2.61,15.18,2.75,13.98,4.88,14.65,0.48
2006-12-08 16:00,-12.61,1.02,-9.81,-0.51,-4.18,-7.63,-11.51,2.20,-11.95,0.28,-12.59,-0.03,-11.23,-0.01,-5.52,-3.44,-7.34,-0.03,-2.44,-3.19,-5.52,0.86,-5.60,2.10,-5.28,2.41,-5.70,2.07,-1.41,-1.82,-4.22,1.07,1.29,-2.74,-0.37,-4.11,1.54,-0.87,6.66,-1.13,9.02,-1.95
2006-12-08 18:00,-18.33,-33.35,-18.03,-29.69,-11.53,-23.73,-19.51,-29.64,-19.73,-28.97,-19.49,-27.74,-19.24,-25.56,-18.46,-21.43,-17.12,-18.38,-14.86,-16.60,-14.12,-16.26,-13.97,-16.42,-14.57,-16.51,-14.06,-16.14,-15.25,-15.36,-16.07,-15.42,-16.95,-14.96,-17.90,-14.63,-17.53,-12.84,-15.64,-11.18,-9.46,-10.16
2006-12-08 19:00,-18.01,-45.53,-16.06,-46.38,-10.35,-37.63,-16.29,-44.98,-17.79,-48.19,-17.33,-44.37,-20.17,-46.01,-22.12,-45.16,-21.86,-45.29,-23.97,-41.98,-23.32,-40.72,-20.91,-37.75,-16.17,-37.81,-12.41,-35.13,-9.19,-33.37,-8.75,-33.76,-9.65,-32.26,-10.57,-30.04,-12.74,-28.84,-11.03,-26.61,-8.55,-15.32
2006-12-08 21:00,-17.74,-44.08,-16.29,-40.05,-11.08,-30.09,-18.00,-39.96,-18.57,-42.14,-19.40,-42.82,-19.28,-43.52,-19.39,-42.19,-20.32,-40.60,-20.47,-39.81,-20.33,-38.92,-19.04,-37.36,-17.10,-35.90,-14.56,-32.99,-12.79,-30.96,-10.15,-29.38,-8.58,-30.66,-7.89,-30.54,-6.22,-28.54,-4.46,-26.82,-5.21,-26.75
2006-12-08 22:00,-18.03,-32.00,-15.93,-33.63,-3.82,-21.90,-17.29,-31.66,-17.62,-32.28,-17.65,-32.51,-18.64,-33.03,-18.57,-32.27,-18.26,-30.60,-19.46,-30.46,-18.41,-30.12,-18.22,-30.06,-16.67,-29.99,-14.77,-30.01,-12.33,-29.44,-11.21,-26.04,-7.34,-27.33,-4.53,-24.96,-4.04,-26.80,0.91,-20.28,-0.35,-14.70
2006-12-08 23:00,-14.86,-16.92,-13.96,-15.48,-6.21,-18.36,-15.65,-17.07,-17.36,-16.98,-17.72,-15.84,-16.32,-14.65,-14.51,-14.71,-13.16,-15.33,-11.97,-16.10,-12.07,-16.13,-11.49,-15.63,-9.26,-19.01,-9.09,-18.54,-8.01,-18.30,-7.34,-17.77,-7.80,-13.72,-5.97,-14.50,-8.37,-16.53,-0.98,-14.38,0.50,-5.51
2006-12-09 00:00,-14.29,-19.36,-15.01,-19.07,-7.99,-19.03,-17.23,-16.73,-17.50,-15.56,-17.74,-14.79,-18.59,-14.12,-18.80,-13.77,-18.69,-12.47,-18.24,-11.59,-17.59,-10.65,-17.94,-10.55,-17.31,-10.56,-16.69,-11.84,-15.76,-13.43,-14.55,-15.25,-13.79,-17.63,-12.65,-19.57,-9.32,-21.13,-6.63,-19.02,-14.72,-8.16
2006-12-09 01:00,2.05,-2.81,-1.23,-2.07,0.08,-6.17,-5.82,-4.80,-6.32,-4.54,-7.76,-3.32,-8.45,-3.12,-8.48,-3.02,-7.64,-1.70,-7.10,-1.43,-7.44,-1.01,-8.48,-0.40,-7.87,0.32,-7.52,0.86,-6.03,1.12,-5.02,0.92,-4.03,1.13,-3.15,-1.64,-7.96,-1.38,-1.87,-5.32,-1.37,-5.90
2006-12-09 02:00,-7.66,4.59,-6.67,2.81,-4.19,-1.34,-3.81,1.41,-2.75,0.38,-2.56,0.44,-3.23,-0.40,-4.18,-0.39,-4.21,-0.29,-4.09,1.63,-4.14,2.46,-3.38,2.70,-3.00,2.51,-2.15,2.15,-1.87,1.92,-0.94,0.96,-0.53,0.35,-0.86,-0.59,0.06,-0.51,1.09,-1.12,2.06,-1.86
2006-12-09 03:00,-2.49,8.13,-2.03,9.64,2.02,6.84,-1.89,10.52,-1.70,10.58,-1.80,9.92,-1.93,9.99,-2.94,9.87,-1.92,10.94,-1.80,10.24,-2.35,9.33,-2.08,7.84,-1.73,8.06,-1.32,7.77,-0.28,7.78,0.36,8.41,0.55,8.15,1.43,7.70,3.13,7.30,4.01,6.53,4.42,6.55
2006-12-09 04:00,-3.42,-0.15,-3.30,-0.84,4.78,-9.71,-1.66,3.56,-4.29,5.56,-5.02,5.85,-5.27,5.98,-5.87,5.89,-5.17,6.33,-5.10,6.77,-5.82,7.06,-6.80,7.17,-6.87,6.73,-5.94,5.45,-4.99,3.13,-3.11,1.53,-1.64,0.53,-0.38,0.19,2.54,0.60,5.35,0.34,5.67,0.65
2006-12-09 05:00,-1.66,3.88,-1.83,3.09,0.57,-0.13,-4.36,2.81,-3.60,3.05,-4.39,3.22,-5.23,4.21,-5.88,5.26,-6.03,6.05,-6.67,7.74,-7.93,8.39,-8.39,9.50,-8.14,8.74,-6.90,6.82,-5.21,7.78,-5.59,5.67,-5.34,2.91,-4.32,1.04,-3.65,-0.74,-3.38,-2.55,-2.06,-2.76
2006-12-09 06:00,-10.50,-12.17,-8.57,-11.97,5.51,-14.30,-11.89,-12.40,-11.82,-11.64,-10.48,-10.59,-9.02,-10.23,-8.94,-9.47,-10.77,-8.69,-11.46,-5.86,-11.15,-1.25,-11.11,1.91,-12.33,2.47,-14.67,0.25,-16.75,-1.78,-17.46,-2.84,-17.60,-3.73,-17.15,-3.48,-16.78,-3.67,-14.28,-1.30,-16.62,1.10
2006-12-09 07:00,-7.89,-25.93,-6.71,-24.71,3.17,-23.76,-6.10,-24.62,-6.05,-25.76,-6.02,-25.54,-5.89,-25.60,-4.73,-25.97,-4.42,-26.92,-4.10,-26.61,-3.44,-26.71,-4.57,-25.81,-5.77,-25.99,-6.67,-24.49,-7.82,-22.86,-9.73,-21.48,-8.53,-18.99,-8.91,-16.49,-8.58,-15.23,-7.92,-13.34,-7.64,-11.57
2006-12-09 08:00,-3.53,-36.29,-1.63,-36.00,2.40,-29.89,-2.67,-35.39,-3.65,-35.91,-4.16,-35.65,-5.01,-35.29,-4.87,-34.41,-6.32,-34.14,-5.96,-33.29,-7.50,-29.79,-8.30,-27.95,-8.63,-26.58,-6.81,-25.69,-5.77,-23.68,-4.41,-23.66,-3.40,-21.24,-3.17,-20.33,0.78,-17.91,1.47,-16.43,-4.20,-16.45
2006-12-09 09:00,-8.51,-32.21,-7.98,-32.57,-1.36,-26.99,-8.47,-31.67,-8.23,-32.44,-7.68,-31.84,-8.75,-31.45,-8.85,-31.48,-10.08,-31.24,-10.91,-32.24,-11.77,-32.20,-13.50,-31.71,-14.78,-30.65,-16.03,-29.05,-17.01,-26.95,-16.96,-23.15,-16.04,-20.13,-14.87,-17.87,-13.87,-16.08,-13.14,-16.06,-11.91,-13.98
2006-12-09 10:00,-11.67,-26.92,-10.60,-27.31,-7.21,-24.45,-10.42,-28.20,-9.93,-29.41,-9.04,-29.55,-9.72,-30.08,-10.47,-30.00,-9.88,-30.23,-9.24,-29.93,-9.71,-29.45,-10.22,-29.82,-10.56,-29.40,-9.85,-28.34,-9.55,-26.98,-8.87,-26.14,-8.15,-24.12,-8.42,-22.63,-7.41,-20.52,-5.87,-19.09,-2.75,-17.36
2006-12-09 11:00,-11.41,-21.49,-12.23,-21.85,-6.80,-19.81,-11.29,-22.18,-10.25,-22.80,-10.69,-22.41,-10.16,-22.77,-10.12,-22.23,-9.97,-22.71,-10.06,-22.74,-10.35,-22.83,-10.83,-22.98,-9.90,-22.26,-9.24,-22.68,-8.86,-22.88,-7.82,-23.18,-6.77,-22.21,-5.85,-21.81,-4.11,-20.00,-3.20,-19.91,-1.92,-19.30
2006-12-09 12:00,-4.50,-10.25,-2.03,-10.09,4.04,-7.74,-3.65,-11.24,-4.63,-10.82,-5.10,-10.66,-5.42,-10.65,-5.71,-11.06,-6.41,-11.49,-5.47,-12.14,-5.25,-12.17,-4.95,-11.45,-5.49,-11.09,-5.96,-10.61,-5.35,-9.89,-3.92,-9.75,-2.60,-10.59,-0.38,-12.61,3.37,-13.52,5.94,-13.01,8.88,-13.02
2006-12-09 13:00,0.14,0.88,1.58,-0.34,3.03,-0.61,0.11,-1.33,0.30,-1.59,-0.47,-1.83,-1.07,-1.92,-1.14,-2.36,-2.38,-3.07,-3.22,-2.39,-3.99,-2.64,-5.21,-4.39,-5.28,-4.83,-5.40,-4.45,-6.00,-3.91,-5.51,-2.81,-6.19,-1.66,-5.27,-1.58,-3.58,-2.93,-0.54,-4.90,2.62,-5.57
2006-12-09 14:00,5.67,-1.65,7.49,-0.13,12.18,0.32,9.34,0.99,8.93,1.28,9.67,1.62,9.38,1.84,8.89,2.42,8.22,1.89,5.39,3.19,2.91,5.02,1.47,6.24,0.84,5.93,1.08,5.49,1.10,4.45,1.45,2.35,2.79,0.79,3.13,-0.26,4.21,-2.01,5.05,-3.64,4.63,-3.98
2006-12-09 15:00,8.76,12.35,9.08,12.34,6.53,11.43,10.95,12.73,9.89,11.76,10.21,12.08,8.32,12.42,6.99,12.62,7.43,12.55,5.90,13.43,6.05,13.27,6.00,14.09,6.82,13.83,8.99,13.26,10.57,12.93,12.27,14.52,13.13,15.11,13.36,15.70,13.73,17.50,13.06,17.29,9.83,16.57
2006-12-09 20:00,-6.83,-14.78,-6.26,-14.59,-0.24,-13.41,-7.92,-13.34,-9.27,-12.40,-9.80,-11.73,-9.76,-11.51,-9.50,-10.69,-8.23,-10.71,-9.30,-7.69,-8.90,-6.31,-7.00,-6.01,-7.06,-7.82,-6.21,-10.48,-5.41,-12.64,-4.24,-12.37,-1.37,-10.83,0.32,-9.55,0.80,-8.77,0.22,-7.28,-1.09,-6.44
2006-12-09 22:00,-6.01,-24.59,-5.22,-24.76,-4.97,-24.89,-5.32,-25.11,-6.55,-25.18,-6.33,-25.22,-6.51,-24.33,-5.72,-24.50,-7.14,-24.32,-7.87,-24.35,-7.26,-23.94,-8.25,-24.47,-9.30,-24.80,-9.81,-22.87,-9.63,-20.81,-6.77,-19.90,-4.12,-18.32,-0.59,-16.56,-1.61,-14.37,-1.94,-13.00,-2.70,-10.62
2006-12-09 23:00,-15.52,-19.12,-15.65,-19.38,-14.42,-17.30,-16.20,-20.60,-16.42,-20.57,-17.03,-21.29,-18.62,-21.27,-18.90,-21.04,-18.33,-21.49,-19.82,-21.12,-20.54,-21.15,-20.79,-20.70,-20.51,-21.24,-18.72,-21.93,-16.17,-20.38,-13.64,-17.79,-10.83,-15.74,-7.55,-13.85,-5.00,-12.93,-2.13,-11.07,0.93,-8.84
2006-12-10 00:00,-8.12,-16.34,-8.22,-17.00,-7.68,-17.04,-8.39,-18.11,-8.48,-17.51,-9.59,-17.65,-8.96,-17.66,-9.37,-18.00,-9.05,-17.69,-9.71,-16.95,-9.34,-18.41,-8.48,-17.82,-7.37,-17.68,-6.22,-16.68,-5.77,-15.80,-5.29,-15.65,-6.21,-16.05,-5.02,-16.51,-3.66,-16.49,-1.44,-13.58,0.09,-13.09
2006-12-10 01:00,1.80,-0.05,3.49,1.22,5.16,3.22,1.62,0.83,0.12,-0.70,-0.14,-0.88,-0.48,-0.47,-1.29,-1.56,-1.40,-2.86,-2.33,-4.21,-2.39,-3.70,-1.70,-4.22,-2.88,-2.81,-3.33,-0.43,-2.61,0.95,-3.02,1.56,-3.10,2.16,-2.32,1.36,1.45,1.72,5.37,1.92,7.78,0.28
2006-12-10 02:00,6.04,2.45,4.90,2.09,3.63,2.10,2.89,3.44,3.73,2.45,3.38,2.23,2.68,1.48,2.00,0.32,1.07,-0.08,1.14,0.05,0.37,-0.51,-0.72,0.93,-1.60,1.06,-2.95,1.68,-3.16,2.67,-2.57,4.11,-0.42,4.59,3.32,5.05,5.75,4.35,7.65,4.33,7.13,3.32
2006-12-10 03:00,9.39,17.27,7.99,16.41,9.46,15.41,8.63,16.71,9.19,16.58,8.63,17.35,7.94,17.55,7.57,18.06,7.52,16.57,6.95,17.02,6.43,17.69,6.07,17.16,4.90,16.89,3.75,16.52,2.97,16.69,6.93,20.37,7.95,20.80,9.37,20.63,5.47,17.07,5.86,17.82,10.07,18.43
2006-12-10 04:00,11.58,17.66,9.78,15.72,2.57,12.68,11.49,15.63,11.59,16.30,11.70,17.28,10.32,17.99,10.19,18.05,9.28,17.97,8.47,17.19,8.13,17.29,7.87,17.10,7.87,17.10,8.16,17.51,7.83,16.57,8.56,16.27,11.01,15.48,13.16,15.01,15.03,15.40,15.73,15.52,12.97,15.27
2006-12-10 05:00,1.50,18.64,0.84,18.74,-1.25,16.08,1.85,20.85,2.11,21.35,2.83,21.06,2.17,21.16,1.65,20.47,1.78,20.09,1.05,20.38,0.85,19.69,-0.76,19.81,-0.39,18.98,1.49,17.69,3.69,16.71,7.07,16.01,8.77,15.61,11.18,16.27,12.32,16.32,12.15,15.21,9.52,14.90
2006-12-10 06:00,2.67,8.09,1.49,7.51,0.77,5.49,4.10,9.18,4.49,9.62,4.72,10.85,3.97,10.92,3.47,11.50,2.93,11.22,2.23,11.42,1.98,11.55,1.09,11.37,2.48,10.66,3.41,9.38,5.01,8.32,7.42,6.67,9.72,6.04,12.65,7.08,13.77,8.17,14.69,8.57,13.36,8.78
2006-12-10 07:00,7.66,2.97,7.86,1.67,7.35,-1.64,8.73,4.88,7.85,5.34,8.09,4.58,8.01,3.50,6.15,3.43,4.39,4.34,3.43,3.72,1.98,3.99,1.46,4.98,0.43,3.60,0.82,2.68,0.31,1.99,1.41,1.50,2.91,-0.23,5.58,-1.05,8.12,-0.77,9.31,0.77,7.48,1.55
2006-12-10 09:00,3.26,-17.12,4.72,-14.45,12.52,-10.28,6.63,-15.52,6.09,-15.48,5.67,-14.15,5.58,-13.54,4.38,-13.40,3.68,-13.52,2.89,-13.67,1.22,-13.68,0.30,-13.76,-1.50,-13.39,-2.41,-13.16,1.82,-13.59,1.50,-13.90,1.59,-14.19,2.44,-14.55,0.55,-14.21,1.02,-11.75,1.38,-12.89
2006-12-10 10:00,-2.34,-19.96,-1.70,-19.33,0.71,-18.67,-0.20,-20.43,-0.70,-20.17,-1.15,-20.42,-1.74,-19.55,-2.57,-18.25,-3.28,-16.69,-4.02,-15.35,-5.26,-13.44,-5.51,-12.99,-5.94,-11.97,-6.00,-11.78,-6.10,-12.13,-5.62,-11.34,-4.99,-11.67,-4.74,-11.80,-5.16,-12.46,-6.11,-12.45,-3.32,-12.61